Wetbulb
63.21 59.72 60.15 58.09 49.08 47.64 43.01 46.23 51.59 51.23 50.90 53.70 55.43 52.71 52.01 55.81 54.09 52.22 64.58 67.50 67.85 68.11 69.11 69.64 71.14 71.75 71.74 72.00 71.61 71.53 71.60 70.57 69.50 68.94 69.24 68.79 69.18 68.99 68.92 68.66 68.97 68.87 67.99 68.33 68.30 68.07 68.18 68.10 67.84
57.34 58.69 57.47 54.98 45.24 40.70 40.71 47.74 48.93 51.13 53.97 55.30 53.78 51.90 51.61 53.85 60.54 61.66 62.40 67.84 68.98 67.88 67.99 68.85 69.97 71.29 71.51 72.03 71.99 71.64 71.31 70.54 69.02 68.57 68.98 68.42 68.72 68.96 69.63 68.50 69.10 68.25 67.80 67.59 66.88 67.13 67.31 67.63 67.72
59.08 58.45 52.49 49.74 45.66 40.25 41.10 46.81 49.49 52.53 53.84 52.87 50.85 53.28 54.12 55.28 61.22 62.40 65.66 67.31 67.94 67.15 68.06 68.83 69.98 71.00 71.03 71.52 71.17 71.24 70.99 70.31 68.67 68.36 68.81 68.82 68.04 68.53 69.53 68.77 69.21 67.42 67.00 67.13 67.11 67.33 66.79 67.05 67.44
55.92 55.16 53.02 45.01 43.63 44.08 45.15 48.25 51.29 50.90 50.97 52.47 51.05 50.92 56.68 61.35 61.65 64.53 66.77 66.94 66.73 66.86 67.89 69.15 69.97 70.62 70.42 70.99 70.93 71.35 71.13 70.07 68.37 67.86 68.25 68.58 67.55 67.63 68.37 69.21 68.77 67.59 67.16 67.31 67.25 66.85 66.26 66.42 66.54
55.10 53.77 46.79 44.27 44.01 44.59 47.40 50.61 51.39 49.36 48.90 50.56 48.61 49.34 54.67 61.45 64.67 65.45 65.55 67.63 66.96 66.51 67.22 68.62 69.65 69.98 70.40 70.70 71.04 71.33 71.01 69.93 68.36 67.53 67.65 68.05 67.36 67.41 67.99 68.82 68.26 67.35 67.29 67.54 67.76 66.85 66.80 66.43 66.10
50.78 52.05 44.04 41.75 43.19 45.49 47.27 48.95 50.40 48.75 48.94 49.63 46.53 52.39 55.62 62.31 63.15 63.94 65.02 66.95 67.73 66.40 66.74 68.12 66.86 68.16 69.18 69.97 70.42 70.78 70.45 69.76 68.50 67.37 67.10 67.55 67.44 67.45 67.03 68.19 68.28 67.68 67.29 66.87 66.52 66.85 66.49 66.03 65.43
49.94 48.76 44.53 43.77 43.65 44.77 47.06 50.22 48.01 47.58 47.03 47.92 50.99 49.45 55.98 59.65 63.37 64.17 63.99 65.83 67.27 66.83 66.19 66.84 67.01 66.47 66.55 67.44 68.18 69.45 69.58 69.13 68.52 68.01 67.29 67.02 67.33 67.38 66.50 66.87 68.79 67.83 66.95 66.68 66.80 66.83 66.14 65.55 64.59
51.05 49.27 45.69 43.16 43.24 43.94 48.39 49.48 49.21 47.72 47.85 51.95 53.23 47.34 51.70 59.90 63.60 63.75 63.63 64.93 66.44 66.44 66.34 64.95 65.31 65.83 65.87 65.72 65.09 66.45 67.52 67.22 66.48 65.69 64.83 64.16 64.40 64.45 63.92 63.50 66.65 67.53 66.91 66.16 66.24 65.95 65.52 64.88 63.90
53.51 45.23 43.24 44.86 44.86 45.20 49.35 46.80 47.70 47.50 48.88 49.84 51.83 54.76 59.27 62.94 63.61 62.35 61.72 62.92 65.52 66.14 66.09 66.00 64.81 64.86 65.30 65.37 63.73 64.15 64.71 64.39 63.72 62.95 62.23 61.56 62.04 62.56 62.37 62.14 63.84 65.50 64.86 65.43 65.37 64.46 63.92 63.32 62.39
47.37 44.26 46.18 47.89 46.70 46.58 48.24 47.55 46.85 45.05 47.56 47.72 50.74 57.17 61.31 62.19 61.53 60.35 60.76 61.04 62.90 63.99 65.89 66.20 65.78 64.42 64.91 65.76 64.09 65.01 65.05 64.13 63.82 63.32 61.91 63.15 61.82 61.00 61.85 59.78 61.09 62.31 63.12 64.15 64.08 62.85 61.59 60.81 59.74
47.26 45.15 48.78 47.42 47.53 49.64 48.14 46.23 48.27 45.77 44.48 47.76 48.76 55.36 59.34 60.23 60.58 60.25 60.66 61.48 62.15 64.17 64.73 65.31 66.02 65.58 64.35 64.12 63.84 64.19 64.20 64.05 64.18 63.96 63.53 62.48 61.73 60.19 61.07 59.76 58.91 58.72 58.45 59.09 59.81 59.62 59.19 59.32 58.24
45.12 47.55 48.13 47.90 47.17 47.82 47.34 48.02 46.53 45.54 44.83 49.44 50.63 56.72 59.02 59.19 59.86 60.31 60.34 61.69 62.37 63.39 64.67 65.10 65.38 65.83 65.01 64.42 64.19 64.47 63.87 64.07 63.62 63.87 63.71 61.88 60.66 59.59 59.74 60.23 59.86 59.31 58.56 58.45 58.38 58.87 58.67 58.33 58.75
45.63 45.65 47.11 47.14 46.22 46.74 48.27 46.40 44.88 45.16 47.33 48.44 50.60 56.03 57.60 58.30 59.14 60.03 61.24 61.88 62.75 62.84 64.67 65.04 64.96 64.79 65.32 65.21 64.42 64.31 64.25 63.63 63.53 63.55 63.63 62.37 60.69 60.12 59.98 59.58 59.74 59.24 58.50 58.35 57.80 57.41 57.86 57.74 58.20
47.12 46.93 45.75 46.27 46.07 45.85 46.38 44.51 44.01 44.82 47.76 47.37 49.08 50.55 55.10 57.14 58.04 58.32 59.18 60.22 61.73 63.08 63.56 65.04 65.35 65.35 65.64 64.92 64.42 64.04 65.04 65.10 63.61 63.09 63.17 62.87 61.32 60.48 59.96 59.33 59.24 58.71 58.49 57.92 57.47 56.83 56.73 56.81 57.41
46.87 43.21 44.32 44.60 45.67 44.29 45.03 41.74 42.71 44.53 46.38 46.07 46.09 47.39 51.33 54.81 57.40 57.76 58.94 59.46 60.91 62.26 63.72 64.43 65.01 65.14 65.02 65.28 65.19 64.37 63.71 63.92 64.25 64.08 63.64 62.82 62.07 60.43 59.60 59.20 58.77 58.80 58.54 57.98 56.82 56.11 55.88 55.43 56.38
42.93 42.26 38.18 42.00 44.23 43.85 42.84 39.51 44.33 45.25 44.24 43.86 45.01 45.19 48.16 51.04 54.84 57.40 59.50 60.01 60.75 61.64 62.50 63.84 65.17 64.79 64.48 65.23 65.59 65.21 65.08 64.61 64.23 64.59 64.11 63.26 62.55 61.39 59.52 58.70 59.62 60.05 59.10 57.78 55.91 55.12 54.42 53.99 53.83
40.67 35.84 37.97 38.79 44.29 42.99 40.73 38.67 42.17 43.53 43.55 42.77 43.13 44.33 46.77 48.14 51.21 54.38 57.77 59.52 60.43 61.23 62.16 63.16 64.30 64.27 63.98 65.02 65.64 65.55 65.37 64.87 64.70 64.61 64.28 64.39 63.07 62.12 59.83 57.92 57.95 57.82 57.68 56.14 55.69 54.19 53.48 52.71 52.54
35.37 34.84 39.18 36.57 40.19 39.86 38.63 38.70 42.37 43.32 43.67 42.75 42.20 43.04 44.59 45.28 47.57 50.32 53.38 55.26 58.91 60.56 61.69 62.79 64.31 64.23 63.87 64.23 64.94 65.08 64.84 64.78 64.96 64.64 63.95 64.11 63.94 63.31 61.09 59.63 58.22 57.86 56.86 56.20 55.47 54.54 53.66 53.16 53.12
41.38 38.61 36.51 38.53 41.29 38.97 38.80 38.67 41.67 43.06 42.36 41.83 42.84 44.10 45.20 45.93 46.01 46.29 46.72 46.45 47.13 49.97 58.78 61.18 62.59 63.91 64.01 63.39 63.48 63.54 63.39 64.19 64.43 64.71 64.41 64.08 64.15 64.13 63.22 60.43 60.30 59.90 58.26 57.47 56.75 55.81 54.61 54.02 53.75
38.18 37.84 36.40 38.33 40.71 38.09 38.85 38.52 40.99 42.28 42.35 43.33 41.96 43.00 44.67 43.88 44.66 46.65 44.89 44.64 46.05 46.85 48.56 55.01 60.66 62.79 64.13 63.96 63.98 63.82 63.79 63.82 64.37 64.58 64.29 64.09 63.60 63.78 63.63 62.57 61.21 60.25 57.76 56.65 55.72 56.02 53.91 53.58 53.06
37.53 37.30 36.00 36.90 38.42 37.79 34.52 34.90 38.81 40.55 41.54 41.57 40.85 41.52 42.39 42.71 44.89 45.42 46.03 46.53 48.07 46.34 46.66 48.99 53.44 59.60 62.45 63.41 64.08 63.19 62.67 62.61 62.83 62.91 62.96 63.22 63.00 63.07 63.22 62.70 61.42 60.43 58.14 56.52 55.98 55.96 54.57 53.84 51.37
35.66 39.52 39.89 37.65 35.49 30.19 35.67 26.83 34.41 36.52 38.06 40.50 42.00 40.60 41.69 43.53 44.73 46.58 46.99 46.11 47.49 49.27 48.40 46.77 48.63 53.64 58.84 62.96 61.78 61.85 61.01 60.11 61.81 62.51 62.98 62.66 62.61 62.48 62.52 62.13 61.52 60.43 59.22 57.11 56.67 56.48 55.95 53.98 52.89
37.40 40.45 38.91 38.32 35.54 31.39 31.09 28.91 32.32 37.48 36.39 38.58 41.38 42.79 43.78 44.37 45.01 45.45 45.45 47.42 48.10 49.72 50.62 45.51 47.80 52.23 55.54 57.66 61.38 61.68 60.09 60.04 60.05 60.72 60.94 61.82 61.87 61.88 61.84 61.34 60.81 60.05 59.39 58.25 57.21 55.93 55.09 55.19 54.01
40.68 38.61 38.09 36.18 33.87 25.88 31.58 30.30 30.21 32.87 36.61 38.80 41.75 42.66 44.23 43.86 43.65 44.69 46.10 47.35 47.36 48.06 50.09 52.52 49.74 50.55 53.49 55.86 57.61 57.87 57.86 58.03 58.03 57.89 58.50 58.83 58.69 59.40 60.22 59.86 59.71 59.77 59.36 58.40 57.66 57.02 55.77 54.91 54.47
37.52 34.51 25.41 24.10 23.12 23.27 28.78 29.11 33.28 35.61 38.34 41.11 41.05 41.71 42.76 43.72 43.35 43.64 44.21 44.77 45.57 45.38 46.09 48.62 52.45 53.16 53.95 54.26 54.42 55.00 56.64 56.68 56.71 55.96 56.00 55.89 55.40 54.14 50.87 52.12 52.77 55.15 56.26 56.65 56.66 56.11 55.59 54.98 54.63
35.20 34.63 27.52 20.43 22.14 24.39 27.51 25.93 32.53 36.36 39.31 42.48 42.85 42.34 43.09 43.47 44.04 43.72 44.16 44.35 44.93 45.49 45.34 45.71 46.25 46.63 47.51 48.32 50.34 51.58 51.96 50.22 48.51 47.95 47.51 47.27 46.67 46.22 47.05 47.58 48.18 48.67 49.21 49.42 50.43 50.96 52.30 52.93 52.27
34.52 31.78 35.60 27.39 20.34 23.86 27.15 31.63 36.13 37.43 37.98 41.28 41.22 41.61 41.71 43.04 43.57 43.61 44.10 43.92 43.76 43.38 44.09 44.36 44.15 44.26 44.84 44.96 44.63 44.28 44.76 44.65 44.04 43.60 43.82 43.67 43.42 44.33 44.01 44.20 44.48 45.31 46.07 46.58 46.68 47.05 47.00 47.80 48.32
36.17 37.99 29.61 29.85 17.67 17.65 25.46 26.31 30.27 32.89 36.31 39.84 40.07 40.33 41.78 42.90 43.12 43.24 43.20 43.14 43.06 42.80 42.89 43.16 43.14 42.42 42.67 42.69 42.41 42.29 41.96 42.11 41.86 41.48 40.74 40.98 41.11 41.50 41.23 41.17 41.63 42.14 42.72 43.17 43.31 43.57 44.39 43.97 44.42
33.52 32.87 33.84 33.47 30.83 22.72 20.27 25.29 34.12 36.42 38.32 39.69 40.22 41.82 42.54 42.09 42.09 42.03 42.22 42.61 42.69 42.46 42.03 41.73 41.60 41.31 41.10 41.22 40.95 40.44 40.31 40.38 40.05 39.28 39.12 39.22 39.55 39.70 39.57 39.67 39.88 40.01 39.94 40.36 40.08 40.27 40.78 40.52 40.76
35.25 35.29 35.08 29.10 25.88 26.69 27.39 27.32 36.69 37.59 39.75 41.00 41.11 42.63 42.37 42.81 42.38 41.69 41.54 41.70 41.64 41.33 40.80 39.73 39.91 39.76 40.15 40.51 39.67 39.35 39.06 38.54 37.92 37.57 37.81 38.14 37.82 38.57 38.21 38.34 38.22 38.29 38.21 37.88 37.68 37.52 37.47 37.51 37.81
MSLP
1011.90 1010.94 1010.87 1010.61 1011.41 1010.65 1010.74 1011.09 1010.95 1011.48 1011.70 1012.02 1012.31 1012.84 1013.54 1014.27 1014.94 1016.68 1016.80 1016.91 1017.35 1018.40 1019.26 1019.54 1019.76 1019.94 1020.28 1020.48 1020.53 1020.82 1020.86 1020.98 1021.14 1021.25 1021.39 1021.33 1021.40 1021.55 1021.60 1021.81 1021.91 1021.90 1021.98 1022.11 1022.15 1022.20 1022.16 1022.34 1022.46
1011.61 1010.93 1010.60 1010.47 1010.70 1010.46 1010.76 1011.14 1011.39 1011.76 1012.03 1012.36 1012.66 1012.88 1013.45 1015.01 1015.56 1016.64 1017.09 1017.17 1017.84 1018.70 1019.28 1019.85 1020.16 1020.37 1020.63 1020.76 1020.83 1021.05 1021.18 1021.38 1021.52 1021.65 1021.66 1021.73 1021.81 1021.87 1022.03 1022.21 1022.30 1022.32 1022.47 1022.58 1022.70 1022.71 1022.83 1022.99 1022.93
1011.78 1011.12 1011.06 1010.33 1010.27 1010.38 1010.59 1011.04 1011.59 1012.13 1012.20 1012.36 1012.83 1013.28 1013.92 1015.46 1016.16 1016.67 1016.96 1017.35 1017.80 1018.67 1019.33 1020.10 1020.37 1020.58 1020.77 1020.88 1021.04 1021.33 1021.53 1021.76 1021.93 1021.92 1021.95 1022.15 1022.21 1022.34 1022.35 1022.52 1022.64 1022.78 1022.79 1022.97 1023.06 1023.22 1023.27 1023.33 1023.46
1011.34 1010.83 1010.70 1010.59 1010.38 1010.56 1010.52 1010.80 1011.43 1012.20 1012.60 1012.75 1012.97 1014.23 1015.27 1015.60 1015.68 1016.53 1016.79 1017.01 1017.92 1018.87 1019.79 1020.38 1020.67 1020.84 1021.07 1021.14 1021.29 1021.41 1021.70 1021.97 1022.22 1022.32 1022.45 1022.58 1022.63 1022.74 1022.83 1022.88 1022.98 1023.18 1023.27 1023.36 1023.49 1023.59 1023.72 1023.87 1023.88
1011.36 1010.88 1010.88 1010.68 1010.61 1010.93 1010.77 1010.78 1011.39 1012.03 1012.59 1013.00 1013.30 1014.41 1015.66 1016.25 1016.40 1017.00 1017.18 1017.42 1018.34 1019.18 1020.12 1020.65 1020.92 1021.13 1021.34 1021.49 1021.62 1021.67 1021.96 1022.24 1022.52 1022.72 1022.80 1022.91 1023.04 1023.12 1023.23 1023.23 1023.35 1023.56 1023.63 1023.69 1023.69 1023.83 1024.10 1024.20 1024.20
1011.49 1011.08 1011.00 1010.77 1010.80 1011.19 1011.22 1011.11 1011.45 1011.92 1012.56 1013.19 1013.55 1014.34 1016.19 1016.49 1016.81 1017.26 1017.43 1017.80 1018.34 1019.27 1020.12 1020.79 1021.20 1021.37 1021.53 1021.80 1021.99 1022.09 1022.34 1022.59 1022.84 1023.07 1023.23 1023.31 1023.46 1023.55 1023.66 1023.62 1023.60 1023.81 1024.01 1023.96 1024.00 1024.20 1024.46 1024.57 1024.64
1011.50 1011.45 1011.10 1010.79 1011.02 1011.40 1011.46 1011.42 1011.59 1012.04 1012.71 1013.08 1013.28 1014.26 1016.33 1016.58 1016.88 1017.22 1017.48 1017.73 1018.11 1019.23 1020.22 1020.94 1021.36 1021.69 1021.80 1022.02 1022.23 1022.40 1022.63 1022.93 1023.16 1023.36 1023.57 1023.70 1023.88 1023.96 1024.08 1024.11 1024.02 1024.08 1024.38 1024.45 1024.49 1024.66 1024.86 1025.00 1025.07
1011.64 1011.59 1011.36 1010.86 1010.89 1011.32 1011.52 1011.74 1011.79 1012.18 1013.25 1013.32 1013.72 1014.42 1015.98 1016.31 1016.87 1017.19 1017.57 1017.97 1018.66 1019.26 1020.08 1020.75 1021.30 1021.68 1021.96 1022.26 1022.51 1022.71 1022.88 1022.99 1023.39 1023.63 1023.81 1023.99 1024.16 1024.31 1024.39 1024.49 1024.54 1024.48 1024.64 1024.88 1025.07 1025.26 1025.37 1025.49 1025.54
1011.75 1011.84 1011.42 1010.85 1010.83 1011.34 1011.62 1012.11 1012.35 1012.87 1013.30 1013.68 1014.40 1014.93 1014.93 1016.12 1016.79 1017.20 1017.69 1018.12 1018.78 1019.20 1019.72 1020.33 1021.04 1021.33 1021.80 1022.26 1022.64 1022.88 1023.09 1023.32 1023.64 1023.90 1023.96 1024.07 1024.18 1024.39 1024.56 1024.77 1024.88 1024.88 1024.98 1025.12 1025.36 1025.60 1025.75 1025.77 1025.75
1011.96 1012.02 1011.35 1010.68 1010.57 1011.27 1011.85 1012.26 1012.75 1013.12 1013.77 1014.42 1015.16 1015.58 1015.93 1016.47 1017.09 1017.61 1017.94 1018.39 1018.77 1019.28 1019.64 1019.86 1020.44 1021.00 1021.48 1021.91 1022.67 1022.93 1023.25 1023.48 1023.62 1023.90 1024.08 1024.13 1024.22 1024.53 1024.77 1024.97 1025.04 1025.10 1025.22 1025.28 1025.40 1025.60 1025.81 1025.84 1025.77
1011.89 1011.76 1011.27 1011.19 1011.34 1011.20 1012.09 1012.48 1012.64 1013.09 1013.94 1013.98 1014.98 1015.84 1016.28 1016.76 1017.29 1017.55 1018.04 1018.36 1018.61 1019.32 1019.77 1020.02 1020.05 1020.59 1021.16 1021.69 1022.37 1022.67 1023.00 1023.18 1023.39 1023.70 1023.90 1024.01 1024.31 1024.56 1024.77 1025.13 1025.25 1025.35 1025.41 1025.52 1025.64 1025.84 1025.77 1025.60 1025.47
1011.91 1011.66 1011.40 1011.84 1011.98 1012.00 1012.40 1012.51 1012.82 1013.10 1013.96 1013.79 1014.23 1015.34 1016.13 1016.73 1017.06 1017.29 1017.57 1017.93 1018.40 1018.88 1019.68 1020.28 1020.32 1020.41 1021.03 1021.50 1021.99 1022.26 1022.72 1022.96 1023.28 1023.52 1023.76 1024.13 1024.46 1024.66 1024.77 1025.02 1025.10 1025.28 1025.36 1025.51 1025.62 1025.72 1025.61 1025.59 1025.54
1012.08 1011.98 1012.15 1012.50 1012.57 1012.62 1012.52 1013.06 1013.11 1013.60 1013.92 1014.20 1014.60 1015.29 1016.06 1016.43 1016.74 1016.97 1017.11 1017.43 1017.89 1018.52 1019.20 1019.95 1020.56 1020.66 1020.89 1021.24 1021.75 1022.05 1022.41 1022.83 1023.06 1023.36 1023.69 1024.00 1024.30 1024.56 1024.63 1024.77 1024.92 1025.08 1025.18 1025.35 1025.52 1025.53 1025.59 1025.69 1025.63
1011.85 1012.22 1012.56 1012.97 1013.16 1013.33 1013.24 1013.60 1013.73 1013.68 1013.90 1014.53 1014.93 1015.30 1015.69 1016.01 1016.18 1016.60 1016.83 1017.26 1017.61 1018.24 1018.76 1019.56 1020.20 1020.66 1020.92 1021.23 1021.65 1021.97 1022.00 1022.44 1022.87 1023.17 1023.52 1023.80 1024.00 1024.29 1024.55 1024.74 1024.88 1025.03 1025.13 1025.26 1025.41 1025.54 1025.61 1025.65 1025.60
1012.07 1012.84 1013.04 1013.31 1013.52 1013.90 1013.66 1014.23 1014.02 1013.88 1014.08 1014.72 1015.11 1015.26 1015.44 1015.64 1015.80 1016.06 1016.39 1016.76 1017.18 1017.74 1018.36 1019.05 1019.78 1020.29 1020.87 1021.29 1021.77 1022.15 1022.27 1022.50 1022.53 1022.86 1023.17 1023.54 1023.81 1024.12 1024.38 1024.65 1024.82 1024.85 1024.92 1025.07 1025.23 1025.36 1025.44 1025.60 1025.52
1012.67 1012.88 1013.25 1013.65 1013.69 1014.23 1014.20 1014.10 1013.79 1014.04 1014.30 1014.68 1014.91 1015.12 1015.35 1015.43 1015.50 1015.82 1015.92 1016.48 1016.96 1017.39 1018.15 1018.55 1019.13 1019.85 1020.44 1021.11 1021.57 1022.00 1022.28 1022.56 1022.73 1022.88 1023.00 1023.35 1023.67 1023.94 1024.24 1024.53 1024.62 1024.75 1024.92 1025.09 1025.30 1025.47 1025.78 1025.93 1025.89
1012.62 1012.69 1013.06 1013.90 1014.08 1014.19 1014.50 1014.33 1014.31 1014.33 1014.45 1014.65 1014.52 1014.89 1015.25 1015.43 1015.68 1015.68 1015.80 1016.26 1016.71 1017.05 1017.65 1018.25 1018.73 1019.51 1020.19 1020.86 1021.28 1021.69 1022.12 1022.48 1022.71 1022.88 1023.09 1023.20 1023.47 1023.77 1024.12 1024.48 1024.76 1024.90 1025.05 1025.30 1025.39 1025.52 1025.68 1025.77 1025.72
1012.29 1012.65 1012.90 1013.73 1014.38 1014.46 1014.74 1014.55 1014.38 1014.42 1014.54 1014.64 1014.60 1014.90 1015.18 1015.38 1015.69 1015.89 1015.92 1016.26 1016.43 1016.89 1017.23 1017.77 1018.36 1019.08 1019.88 1020.65 1021.12 1021.46 1021.89 1022.22 1022.46 1022.69 1022.98 1023.13 1023.24 1023.36 1023.70 1024.05 1024.36 1024.62 1024.96 1025.11 1025.26 1025.53 1025.58 1025.63 1025.66
1012.07 1012.62 1012.95 1013.68 1014.24 1014.57 1014.70 1014.62 1014.40 1014.38 1014.81 1014.68 1014.80 1014.95 1015.21 1015.54 1015.95 1016.16 1016.44 1016.51 1016.83 1017.04 1017.24 1017.48 1018.04 1018.62 1019.48 1020.38 1021.13 1021.45 1021.64 1021.98 1022.26 1022.43 1022.68 1022.88 1023.08 1023.27 1023.52 1023.82 1023.97 1024.12 1024.42 1024.74 1025.03 1025.42 1025.60 1025.62 1025.69
1011.97 1012.40 1013.28 1014.31 1014.64 1015.08 1014.78 1014.68 1014.28 1014.23 1014.52 1014.69 1014.99 1014.88 1015.24 1015.72 1016.38 1016.72 1017.06 1017.09 1017.48 1017.67 1017.67 1017.65 1017.70 1018.12 1018.76 1019.50 1020.43 1020.96 1021.37 1021.75 1021.84 1022.21 1022.48 1022.71 1022.92 1023.09 1023.23 1023.38 1023.48 1023.60 1024.17 1024.48 1024.76 1025.05 1025.32 1025.39 1025.35
1012.22 1012.35 1013.20 1014.06 1015.19 1015.49 1015.36 1014.95 1014.48 1014.26 1014.42 1014.77 1015.19 1015.44 1015.74 1016.12 1016.69 1017.29 1017.53 1017.88 1017.95 1018.06 1018.16 1017.94 1017.95 1018.03 1018.41 1019.07 1019.97 1020.79 1021.27 1021.54 1021.94 1022.25 1022.50 1022.58 1022.73 1022.87 1022.93 1023.00 1023.24 1023.53 1023.83 1024.11 1024.43 1024.78 1025.08 1025.25 1025.36
1012.72 1012.64 1013.07 1014.38 1015.43 1015.84 1015.34 1015.02 1014.19 1014.32 1014.92 1015.40 1015.83 1016.12 1016.44 1016.70 1017.16 1017.45 1017.85 1018.46 1018.52 1018.69 1018.53 1018.25 1018.12 1018.27 1018.44 1018.97 1019.81 1020.53 1020.99 1021.35 1021.62 1021.71 1022.02 1022.29 1022.48 1022.69 1022.85 1023.02 1023.11 1023.27 1023.54 1023.93 1024.14 1024.15 1024.41 1024.75 1025.00
1013.46 1013.33 1014.02 1014.83 1015.63 1015.90 1016.00 1015.89 1014.71 1014.61 1015.32 1015.67 1015.91 1016.32 1016.82 1017.14 1017.63 1018.00 1018.58 1018.77 1019.00 1018.96 1018.68 1018.53 1018.56 1018.57 1018.81 1019.01 1019.53 1020.28 1020.84 1021.34 1021.55 1021.87 1021.96 1022.21 1022.34 1022.54 1022.70 1022.83 1022.94 1023.22 1023.34 1023.45 1023.65 1023.87 1024.07 1024.35 1024.39
1013.94 1014.51 1015.20 1015.58 1016.44 1016.93 1016.20 1016.09 1015.13 1014.89 1014.52 1015.33 1015.88 1016.65 1017.21 1017.73 1018.46 1018.44 1018.98 1019.32 1019.26 1019.48 1019.22 1018.91 1018.98 1019.28 1019.45 1019.66 1019.88 1020.33 1020.90 1021.50 1021.83 1022.26 1022.35 1022.54 1022.77 1022.89 1022.92 1023.11 1023.22 1023.27 1023.36 1023.35 1023.41 1023.55 1023.69 1023.84 1024.02
1014.24 1014.91 1016.46 1017.47 1017.79 1017.69 1016.92 1016.47 1014.91 1014.28 1014.07 1014.67 1015.70 1016.85 1017.60 1017.86 1018.87 1018.88 1019.48 1019.66 1019.97 1020.15 1019.89 1019.87 1019.92 1020.00 1020.17 1020.49 1020.80 1021.05 1021.37 1021.65 1022.19 1022.61 1022.91 1023.00 1023.19 1023.51 1023.72 1023.68 1023.64 1023.49 1023.41 1023.51 1023.56 1023.69 1023.81 1023.87 1023.90
1014.32 1014.40 1015.70 1017.35 1018.48 1018.60 1017.91 1016.40 1014.48 1014.36 1014.19 1014.61 1015.35 1016.55 1017.60 1018.07 1018.84 1019.17 1019.81 1019.80 1020.37 1020.66 1020.51 1020.41 1020.65 1020.80 1020.93 1021.18 1021.70 1022.13 1022.52 1022.86 1023.14 1023.27 1023.71 1023.95 1024.26 1024.36 1024.28 1024.23 1024.02 1023.97 1023.95 1023.85 1023.82 1023.56 1023.68 1023.72 1023.84
1014.46 1014.56 1015.04 1016.89 1018.66 1018.88 1017.58 1016.00 1015.13 1014.89 1014.91 1015.07 1015.69 1016.81 1017.65 1018.35 1018.96 1019.47 1020.04 1020.21 1020.78 1021.19 1021.28 1021.11 1021.41 1021.64 1021.59 1022.04 1022.41 1022.85 1023.25 1023.65 1023.99 1024.15 1024.26 1024.51 1024.74 1024.78 1024.79 1024.67 1024.56 1024.47 1024.38 1024.33 1024.29 1024.27 1024.00 1023.94 1023.79
1013.73 1013.74 1015.11 1016.03 1018.15 1018.69 1017.15 1015.89 1014.71 1015.25 1014.80 1015.32 1015.92 1016.62 1017.65 1018.45 1018.94 1019.64 1020.16 1020.59 1021.17 1021.49 1021.69 1021.84 1022.20 1022.38 1022.47 1022.80 1023.24 1023.48 1024.07 1024.40 1024.77 1024.92 1025.14 1025.22 1025.22 1025.28 1025.38 1025.40 1025.19 1025.01 1024.88 1024.83 1024.60 1024.27 1024.12 1024.11 1023.99
1013.97 1013.68 1014.35 1014.99 1016.24 1016.77 1016.87 1015.29 1013.25 1013.06 1013.52 1014.57 1015.61 1016.35 1017.45 1018.42 1019.10 1019.79 1020.29 1020.89 1021.29 1021.73 1022.22 1022.53 1022.83 1023.14 1023.25 1023.44 1023.79 1024.09 1024.55 1025.01 1025.36 1025.42 1025.73 1025.92 1025.83 1025.84 1025.78 1025.79 1025.60 1025.36 1025.26 1025.11 1025.04 1024.87 1024.62 1024.50 1024.15
1013.37 1013.33 1013.56 1014.45 1015.40 1015.97 1015.91 1014.27 1013.04 1012.47 1013.02 1014.03 1015.00 1016.04 1017.23 1018.18 1018.86 1019.53 1020.26 1021.04 1021.68 1021.93 1022.40 1022.98 1023.38 1023.68 1023.89 1023.98 1024.26 1024.72 1025.17 1025.54 1025.93 1026.07 1026.25 1026.35 1026.40 1026.19 1026.15 1026.09 1026.03 1025.86 1025.64 1025.52 1025.31 1025.21 1024.96 1024.80 1024.43
Wind_Speed
11 11 6 1 1 3 4 4 8 7 6 5 8 6 11 10 6 7 4 14 16 14 11 9 10 10 9 9 10 12 14 16 15 14 14 15 15 14 17 18 15 16 16 16 16 14 16 17 16
6 9 2 3 3 3 3 7 8 8 8 9 6 3 6 10 7 11 5 14 17 13 9 9 10 10 9 10 10 13 15 14 15 13 15 15 14 14 17 18 16 16 17 16 15 15 16 15 15
5 9 1 3 3 4 6 7 10 9 5 4 4 6 6 5 9 8 10 14 16 13 11 10 10 10 10 11 11 14 15 14 14 14 14 14 14 15 15 16 15 15 15 15 16 16 14 15 15
4 2 3 2 4 6 8 7 13 9 5 5 5 9 6 6 4 10 13 11 15 12 12 9 9 10 10 10 10 15 14 14 14 14 13 13 13 12 12 14 17 14 14 15 15 13 14 13 13
3 3 4 4 8 6 7 9 10 6 6 7 1 6 8 5 10 12 13 15 13 13 11 9 10 10 9 10 10 12 14 14 14 13 12 12 13 13 12 12 15 14 12 10 13 14 14 14 12
3 2 3 4 5 7 6 4 7 7 7 7 1 10 5 8 10 9 9 14 13 14 10 9 9 10 10 10 10 10 14 13 13 12 11 11 11 11 13 11 15 13 12 11 13 13 14 12 11
2 3 6 4 8 5 7 5 4 7 5 5 5 6 7 7 10 9 9 8 15 14 11 9 8 8 9 10 10 10 13 12 11 11 10 10 10 10 10 10 10 15 13 11 11 12 13 11 10
3 2 9 2 7 4 7 6 3 4 6 2 4 2 7 10 11 9 9 8 14 11 10 8 8 7 6 6 8 9 9 12 12 10 9 8 9 9 7 8 7 10 11 11 13 12 10 9 8
3 2 5 5 5 7 9 5 3 2 7 4 4 6 14 14 12 9 8 7 13 11 7 10 8 7 8 7 6 7 10 11 10 7 7 6 5 5 6 8 10 9 8 9 10 9 7 6 5
3 3 8 2 2 9 8 8 7 5 8 5 7 5 10 11 10 9 10 8 9 11 10 7 9 7 8 8 6 6 6 5 5 6 5 4 5 5 7 7 8 8 7 7 7 5 2 5 2
4 4 6 7 6 9 8 4 6 5 6 9 11 10 10 8 9 10 9 8 8 10 5 4 6 8 7 7 5 3 3 4 4 7 5 3 4 3 4 3 2 3 3 2 3 2 3 3 2
4 1 4 4 3 3 9 5 4 1 4 7 7 13 10 10 10 10 10 10 9 10 12 6 4 6 7 5 4 5 4 3 3 4 5 3 2 3 2 3 4 4 3 4 3 3 2 2 2
3 5 6 7 3 6 7 5 2 4 8 9 8 11 10 9 10 9 9 9 10 9 13 12 7 4 3 6 4 4 5 4 4 5 5 4 3 4 2 2 3 3 3 3 3 2 2 3 3
7 7 9 6 6 3 5 3 2 2 10 9 6 6 10 9 10 8 8 8 8 8 10 13 12 8 4 3 2 1 2 6 4 4 5 5 3 4 3 3 2 3 3 3 3 3 3 3 3
7 7 6 6 7 3 1 3 5 6 6 7 8 8 8 9 9 9 9 8 8 7 9 11 12 10 9 6 5 3 1 2 3 4 6 7 4 4 4 4 4 4 3 4 2 2 1 2 3
6 5 6 3 5 1 1 3 5 9 8 7 9 8 6 5 6 8 9 8 8 8 8 8 9 11 10 7 6 4 4 3 2 0 2 6 5 4 4 2 2 1 2 2 2 2 2 3 3
8 6 6 4 3 5 4 3 4 3 5 7 8 8 9 7 5 5 6 8 7 9 9 8 9 9 10 8 6 5 6 4 4 3 2 3 6 5 4 3 3 2 1 2 2 3 3 3 4
7 4 8 7 7 2 5 4 6 7 5 5 6 6 7 6 8 7 5 3 5 6 9 9 7 9 8 5 4 4 4 4 4 4 4 5 3 5 5 4 5 5 4 4 3 4 3 4 3
8 8 6 6 2 4 7 5 8 10 7 6 6 9 8 9 6 6 4 5 5 3 3 7 8 9 10 7 5 4 5 5 4 4 6 6 5 6 4 4 5 5 5 4 4 3 5 3 2
2 8 6 6 5 1 6 9 7 7 7 7 5 5 7 6 7 6 2 2 1 4 5 4 7 8 8 8 5 3 3 2 3 4 4 5 5 5 5 5 5 5 3 4 4 4 2 3 3
4 6 6 5 5 2 1 6 7 2 4 5 2 3 3 3 7 6 4 4 2 1 4 4 4 4 6 9 8 3 3 2 2 2 3 5 6 6 5 5 4 3 4 5 5 5 6 6 2
5 4 10 11 7 4 5 5 6 6 7 6 7 6 7 7 4 6 6 6 5 2 2 4 4 3 1 10 8 6 4 3 3 4 3 4 6 5 5 5 4 4 3 4 5 4 6 4 7
3 7 6 5 4 1 3 2 4 10 7 8 8 7 6 7 7 7 6 6 5 5 3 2 3 4 3 4 9 6 5 2 2 3 3 3 3 4 4 4 4 4 3 4 5 4 5 5 5
7 8 6 3 3 1 7 7 5 6 8 7 8 7 8 7 7 8 7 6 6 5 6 6 7 6 6 5 7 5 6 3 2 2 3 3 3 3 4 5 4 4 3 3 3 5 5 5 6
5 7 3 1 0 6 6 4 9 2 1 10 11 10 8 9 8 8 7 7 6 6 7 6 8 8 8 9 8 8 7 6 6 5 3 4 4 5 7 7 6 4 4 4 4 4 4 4 5
8 8 7 8 5 4 5 7 7 2 3 10 10 10 9 8 7 8 7 7 6 6 7 8 8 9 9 9 8 7 8 6 5 7 5 5 5 4 6 6 6 6 6 6 5 3 3 4 4
7 7 3 8 2 4 5 6 2 3 3 8 11 9 9 9 8 8 8 7 7 7 7 8 8 8 9 9 8 9 8 8 7 8 7 5 5 4 6 6 6 6 6 7 6 4 5 5 5
3 7 4 1 5 4 6 4 7 7 10 10 12 11 9 8 9 8 7 8 6 7 7 8 7 8 8 8 7 8 8 8 7 6 7 7 6 7 7 7 7 6 6 7 6 4 5 5 4
3 5 4 6 6 7 3 8 3 15 19 17 14 12 11 10 9 8 7 7 7 7 7 7 7 8 8 7 7 8 7 7 7 7 6 6 6 6 6 6 6 6 6 6 6 6 6 7 6
3 5 7 6 5 0 4 8 2 3 15 16 15 13 10 9 8 8 8 8 7 7 7 7 7 7 6 7 7 8 7 7 7 6 6 6 6 6 6 6 6 6 6 6 6 6 6 7 7
Wind_Direction
284 270 226 341 333 202 127 69 86 95 101 78 48 38 77 47 25 100 164 111 120 110 118 108 105 103 103 93 107 114 105 97 91 91 91 87 83 85 90 82 75 79 80 75 70 72 69 61 60
304 304 255 261 208 209 95 119 117 93 85 88 96 45 80 70 70 111 100 115 111 115 120 115 105 101 104 100 103 112 101 100 97 101 95 89 80 89 95 88 81 76 81 80 78 79 77 76 72
276 267 332 230 251 352 119 149 98 92 100 104 113 50 25 81 137 145 131 123 121 124 103 112 108 106 95 83 108 116 104 101 97 94 96 91 84 71 90 93 87 82 79 81 80 82 84 81 72
310 244 278 276 242 24 108 124 114 112 78 15 11 88 74 315 97 130 132 129 102 108 107 113 117 117 104 90 101 114 109 102 98 96 100 92 87 73 65 88 87 84 92 92 92 91 88 79 67
243 280 259 244 77 88 29 91 122 142 129 131 30 96 96 50 94 134 135 116 116 106 114 121 119 110 105 94 87 104 108 106 101 99 98 92 89 75 69 86 97 96 90 80 97 92 91 83 73
287 254 270 211 105 90 91 89 131 118 121 77 157 106 81 124 129 146 140 126 131 117 119 126 113 111 104 94 90 91 108 103 102 100 100 97 88 77 69 55 109 109 90 73 86 94 93 85 75
236 242 260 239 119 138 130 138 151 127 140 146 1 87 127 152 137 146 143 131 125 122 122 128 126 115 108 110 105 100 109 102 95 99 86 73 64 64 69 50 93 99 89 66 83 75 85 84 80
307 231 266 303 136 134 126 152 7 102 68 96 27 124 168 149 146 150 141 138 113 119 137 141 132 147 132 126 108 104 111 106 102 101 101 99 93 92 90 81 59 92 97 83 70 71 75 75 64
331 308 250 193 244 124 141 119 8 13 109 68 65 23 118 132 148 154 144 145 129 137 162 144 148 152 142 128 122 109 107 113 116 116 136 151 137 149 100 71 59 70 88 96 93 75 59 92 91
196 187 252 300 191 134 159 148 140 139 121 106 89 66 111 137 156 160 157 163 147 147 154 148 154 155 150 141 156 145 138 154 164 143 185 213 102 81 111 94 89 80 89 98 73 65 300 252 215
214 209 251 39 37 108 152 165 140 161 172 170 161 157 146 156 172 167 172 174 163 149 131 164 165 150 151 129 172 149 154 170 156 148 195 117 108 134 128 133 137 128 181 140 128 190 246 272 5
234 278 36 93 7 123 153 109 120 259 96 61 94 149 153 169 179 180 183 172 170 158 152 166 217 174 157 138 162 156 152 154 145 154 144 126 123 173 175 163 183 171 183 162 198 201 270 329 292
227 132 71 97 120 58 92 122 118 137 110 76 75 143 164 180 184 193 183 179 169 166 156 162 180 203 178 154 173 160 155 149 169 152 153 154 178 171 187 184 149 174 176 169 193 205 186 251 273
203 137 132 140 116 64 128 97 45 107 138 127 129 175 171 186 186 186 185 187 170 167 160 161 169 176 205 202 143 184 157 160 169 157 163 197 182 167 182 176 187 191 168 207 193 203 212 234 235
117 120 121 138 168 127 227 106 215 141 134 166 174 201 191 195 189 185 189 179 172 167 166 165 170 165 181 170 160 181 263 336 172 171 172 175 208 180 182 183 193 201 192 211 204 249 268 294 282
182 160 141 151 161 212 180 218 134 157 152 195 187 196 171 207 204 193 175 179 171 163 176 171 164 169 170 175 170 173 170 182 236 310 195 178 188 216 194 155 199 229 171 176 206 208 244 259 263
215 175 185 146 275 140 194 189 152 127 179 221 202 180 169 187 207 229 187 169 183 172 172 179 158 156 158 177 174 169 166 173 185 215 247 263 183 200 179 179 214 206 212 231 245 247 211 226 246
174 247 187 148 196 234 177 224 159 173 187 211 184 152 149 179 188 201 201 212 189 185 177 176 164 158 153 168 169 163 166 177 180 188 184 208 248 201 199 193 196 200 191 215 210 231 254 232 256
187 202 133 111 98 170 212 215 215 179 179 215 208 179 174 172 108 75 33 27 351 314 233 186 170 164 157 169 178 177 188 183 187 180 181 193 202 221 235 201 213 206 201 196 211 213 236 273 222
249 198 171 65 100 97 204 238 231 245 193 181 220 178 140 120 120 105 109 81 321 288 276 268 199 176 171 158 162 163 150 179 179 185 196 192 193 217 216 217 219 212 182 200 220 213 228 236 179
234 176 153 130 139 252 356 274 214 192 111 106 292 299 73 123 144 135 128 109 67 92 315 275 269 217 171 144 141 126 99 82 143 186 189 200 201 218 225 226 224 223 189 203 204 212 206 246 245
186 69 115 128 141 214 163 267 197 156 161 181 194 203 198 130 99 114 113 75 69 13 298 291 296 268 176 144 144 156 173 175 183 179 183 192 199 217 228 234 232 219 200 205 227 217 219 203 247
161 107 123 138 175 91 199 91 272 130 178 190 189 184 130 142 133 112 91 98 58 27 59 84 57 45 55 70 145 173 129 124 85 74 142 187 209 231 240 235 237 234 221 222 225 228 222 226 238
148 93 65 62 97 285 201 157 247 190 198 163 152 156 139 124 113 102 106 98 87 46 47 67 96 66 46 50 54 103 134 185 160 78 66 64 66 52 43 33 15 344 316 278 251 247 233 233 236
147 147 107 78 88 223 344 186 241 182 134 160 154 152 153 143 152 139 117 94 89 70 60 59 74 79 69 68 67 69 78 85 71 60 46 39 32 39 21 20 12 6 355 353 345 326 307 281 268
198 168 150 177 184 216 351 229 244 94 63 144 139 144 151 133 122 114 118 105 91 89 82 80 81 79 73 74 68 56 52 65 63 61 61 56 52 42 19 18 17 13 8 6 353 329 304 299 301
206 205 120 104 33 72 209 266 322 154 221 140 140 142 150 141 132 128 123 108 92 79 84 85 78 75 76 77 72 63 59 63 65 54 55 60 48 28 28 25 19 12 9 6 359 349 339 338 315
215 137 80 345 132 227 241 254 227 210 198 168 162 160 161 149 140 133 118 111 105 94 82 75 74 82 80 76 71 73 68 63 65 62 51 46 44 33 26 17 15 11 9 3 359 353 336 333 316
164 182 200 152 162 170 168 255 226 198 186 180 170 171 162 151 148 137 127 121 116 106 91 88 81 80 78 78 82 79 71 64 59 61 52 37 37 31 27 10 5 7 3 360 356 349 346 334 319
335 211 177 153 236 147 143 269 292 270 176 173 174 173 153 154 146 134 133 133 128 115 102 95 84 84 84 89 82 76 72 69 63 57 48 33 24 23 22 9 2 359 357 352 350 347 336 323 321